QPF
0.01 0.01 0.01 0.00 0.01 0.01 0.02 0.03 0.03 0.04 0.04 0.03 0.03 0.04 0.03 0.02 0.03 0.04 0.05 0.05 0.04 0.04 0.07 0.13 0.21 0.16 0.15 0.13 0.11 0.11 0.12 0.09 0.08 0.09 0.08 0.05 0.03 0.02 0.02 0.02 0.02 0.02 0.02 0.02 0.02 0.02 0.02 0.01 0.01
0.00 0.00 0.01 0.01 0.01 0.01 0.02 0.03 0.04 0.05 0.03 0.03 0.02 0.03 0.02 0.02 0.03 0.03 0.05 0.05 0.04 0.03 0.04 0.07 0.16 0.12 0.10 0.08 0.08 0.09 0.08 0.08 0.07 0.06 0.05 0.04 0.02 0.02 0.02 0.02 0.02 0.01 0.02 0.02 0.02 0.02 0.02 0.02 0.02
0.00 0.01 0.01 0.02 0.01 0.01 0.02 0.03 0.05 0.04 0.03 0.02 0.02 0.03 0.02 0.03 0.02 0.03 0.03 0.02 0.03 0.04 0.04 0.06 0.12 0.11 0.09 0.07 0.07 0.07 0.06 0.06 0.05 0.04 0.04 0.03 0.02 0.02 0.01 0.02 0.02 0.01 0.01 0.01 0.01 0.01 0.02 0.02 0.02
0.01 0.01 0.01 0.02 0.02 0.01 0.01 0.02 0.03 0.04 0.04 0.02 0.03 0.03 0.03 0.04 0.03 0.02 0.03 0.03 0.03 0.04 0.04 0.05 0.09 0.08 0.07 0.06 0.05 0.04 0.03 0.03 0.03 0.04 0.03 0.03 0.02 0.01 0.01 0.01 0.01 0.01 0.01 0.00 0.01 0.01 0.01 0.01 0.02
0.01 0.01 0.01 0.02 0.02 0.01 0.01 0.01 0.02 0.03 0.04 0.03 0.03 0.06 0.08 0.06 0.05 0.03 0.03 0.04 0.04 0.04 0.04 0.05 0.06 0.05 0.05 0.05 0.05 0.03 0.03 0.02 0.02 0.03 0.02 0.02 0.02 0.01 0.01 0.01 0.01 0.02 0.01 0.00 0.01 0.01 0.01 0.00 0.01
0.01 0.01 0.03 0.03 0.03 0.02 0.02 0.02 0.03 0.04 0.04 0.02 0.03 0.09 0.14 0.09 0.06 0.05 0.04 0.05 0.05 0.05 0.03 0.03 0.05 0.05 0.06 0.05 0.04 0.03 0.03 0.02 0.02 0.02 0.02 0.02 0.02 0.01 0.01 0.01 0.02 0.02 0.01 0.01 0.01 0.01 0.01 0.01 0.01
0.01 0.02 0.04 0.03 0.03 0.04 0.03 0.02 0.03 0.03 0.04 0.02 0.02 0.08 0.08 0.08 0.08 0.05 0.05 0.05 0.05 0.05 0.04 0.04 0.04 0.03 0.05 0.05 0.05 0.03 0.02 0.03 0.02 0.01 0.01 0.01 0.01 0.01 0.01 0.01 0.01 0.02 0.02 0.01 0.01 0.01 0.01 0.01 0.01
0.02 0.03 0.04 0.04 0.05 0.04 0.03 0.03 0.03 0.02 0.02 0.01 0.01 0.04 0.04 0.05 0.06 0.04 0.05 0.07 0.06 0.04 0.04 0.03 0.02 0.01 0.01 0.03 0.04 0.04 0.03 0.03 0.04 0.03 0.02 0.01 0.01 0.01 0.01 0.01 0.01 0.02 0.02 0.01 0.01 0.01 0.01 0.01 0.01
0.02 0.04 0.05 0.04 0.05 0.03 0.02 0.02 0.02 0.01 0.01 0.02 0.01 0.02 0.03 0.03 0.03 0.02 0.02 0.04 0.03 0.02 0.03 0.03 0.01 0.00 0.01 0.02 0.02 0.03 0.03 0.03 0.02 0.02 0.01 0.01 0.01 0.01 0.01 0.01 0.01 0.01 0.01 0.01 0.01 0.01 0.01 0.01 0.01
0.03 0.05 0.04 0.03 0.02 0.02 0.01 0.02 0.02 0.01 0.03 0.02 0.01 0.02 0.03 0.03 0.03 0.02 0.02 0.01 0.01 0.01 0.01 0.02 0.01 0.00 0.01 0.01 0.01 0.01 0.01 0.01 0.00 0.00 0.00 0.00 0.00 0.00 0.00 0.01 0.01 0.01 0.01 0.01 0.00 0.01 0.01 0.01 0.00
0.03 0.04 0.04 0.04 0.03 0.02 0.01 0.01 0.01 0.01 0.03 0.02 0.02 0.02 0.05 0.06 0.04 0.03 0.02 0.01 0.01 0.01 0.01 0.01 0.00 0.01 0.01 0.01 0.01 0.01 0.01 0.01 0.00 0.00 0.00 0.00 0.00 0.00 0.00 0.00 0.00 0.01 0.01 0.01 0.00 0.00 0.00 0.00 0.00
0.04 0.03 0.03 0.05 0.03 0.01 0.01 0.01 0.02 0.02 0.02 0.01 0.01 0.02 0.06 0.05 0.03 0.01 0.01 0.00 0.00 0.00 0.01 0.00 0.00 0.01 0.01 0.01 0.01 0.01 0.01 0.00 0.00 0.00 0.00 0.00 0.00 0.00 0.00 0.00 0.00 0.00 0.00 0.00 0.00 0.00 0.00 0.00 0.00
0.06 0.05 0.04 0.03 0.02 0.02 0.01 0.01 0.01 0.02 0.01 0.01 0.01 0.02 0.03 0.02 0.02 0.02 0.01 0.00 0.00 0.00 0.00 0.01 0.01 0.01 0.01 0.01 0.01 0.00 0.00 0.00 0.00 0.00 0.00 0.00 0.00 0.00 0.00 0.00 0.00 0.00 0.00 0.00 0.00 0.00 0.00 0.00 0.00
0.06 0.05 0.05 0.04 0.03 0.03 0.04 0.02 0.01 0.02 0.02 0.02 0.03 0.03 0.03 0.03 0.02 0.02 0.01 0.00 0.00 0.00 0.00 0.00 0.01 0.01 0.00 0.00 0.00 0.00 0.00 0.00 0.00 0.00 0.00 0.00 0.00 0.00 0.00 0.00 0.00 0.00 0.00 0.00 0.00 0.00 0.00 0.00 0.00
0.05 0.07 0.07 0.07 0.07 0.05 0.05 0.03 0.03 0.03 0.02 0.02 0.02 0.03 0.03 0.02 0.02 0.03 0.01 0.00 0.00 0.00 0.00 0.00 0.01 0.00 0.00 0.00 0.00 0.00 0.00 0.00 0.00 0.00 0.00 0.00 0.00 0.00 0.00 0.00 0.00 0.00 0.00 0.00 0.00 0.00 0.00 0.00 0.00
0.07 0.10 0.08 0.06 0.08 0.06 0.05 0.05 0.05 0.03 0.02 0.02 0.02 0.02 0.02 0.03 0.04 0.02 0.01 0.01 0.00 0.00 0.00 0.00 0.00 0.00 0.00 0.00 0.00 0.00 0.00 0.00 0.00 0.00 0.00 0.00 0.00 0.00 0.00 0.00 0.00 0.00 0.00 0.00 0.00 0.00 0.00 0.00 0.00
0.09 0.10 0.09 0.06 0.04 0.06 0.07 0.07 0.05 0.03 0.02 0.01 0.02 0.02 0.02 0.02 0.04 0.02 0.00 0.00 0.00 0.00 0.00 0.00 0.00 0.00 0.00 0.00 0.00 0.00 0.00 0.00 0.00 0.00 0.00 0.00 0.00 0.00 0.00 0.00 0.00 0.00 0.00 0.00 0.00 0.00 0.00 0.00 0.00
0.08 0.07 0.08 0.06 0.04 0.05 0.06 0.08 0.05 0.03 0.02 0.01 0.02 0.01 0.02 0.02 0.02 0.01 0.00 0.00 0.00 0.00 0.00 0.00 0.00 0.00 0.00 0.00 0.00 0.00 0.00 0.00 0.00 0.00 0.00 0.00 0.00 0.00 0.00 0.00 0.00 0.00 0.00 0.00 0.00 0.00 0.00 0.00 0.00
0.05 0.05 0.06 0.06 0.04 0.03 0.04 0.05 0.05 0.04 0.02 0.02 0.03 0.02 0.01 0.01 0.00 0.00 0.00 0.00 0.00 0.00 0.00 0.00 0.00 0.00 0.00 0.00 0.00 0.00 0.00 0.00 0.00 0.00 0.00 0.00 0.00 0.00 0.00 0.00 0.00 0.00 0.00 0.00 0.00 0.00 0.00 0.00 0.00
0.04 0.04 0.04 0.05 0.03 0.02 0.03 0.03 0.05 0.04 0.03 0.02 0.02 0.02 0.01 0.01 0.00 0.00 0.00 0.00 0.00 0.00 0.00 0.00 0.00 0.00 0.00 0.00 0.00 0.00 0.00 0.00 0.00 0.00 0.00 0.00 0.00 0.00 0.00 0.00 0.00 0.00 0.00 0.00 0.00 0.00 0.00 0.00 0.00
0.03 0.03 0.03 0.02 0.02 0.02 0.02 0.03 0.04 0.04 0.04 0.02 0.01 0.02 0.00 0.00 0.00 0.00 0.00 0.00 0.00 0.00 0.00 0.00 0.00 0.00 0.00 0.00 0.00 0.00 0.00 0.00 0.00 0.00 0.00 0.00 0.00 0.00 0.00 0.00 0.00 0.00 0.00 0.00 0.00 0.00 0.00 0.01 0.00
0.02 0.02 0.01 0.01 0.02 0.02 0.02 0.03 0.03 0.02 0.03 0.02 0.02 0.02 0.00 0.00 0.00 0.00 0.00 0.00 0.00 0.00 0.00 0.00 0.00 0.00 0.00 0.00 0.00 0.00 0.00 0.00 0.00 0.00 0.00 0.00 0.00 0.00 0.00 0.00 0.00 0.00 0.00 0.00 0.00 0.00 0.00 0.00 0.00
0.01 0.01 0.01 0.01 0.01 0.01 0.01 0.01 0.02 0.02 0.02 0.01 0.01 0.01 0.00 0.00 0.00 0.00 0.00 0.00 0.00 0.00 0.00 0.00 0.00 0.00 0.00 0.00 0.00 0.00 0.00 0.00 0.00 0.00 0.00 0.00 0.00 0.00 0.00 0.00 0.00 0.00 0.00 0.00 0.00 0.00 0.00 0.00 0.00
0.01 0.01 0.01 0.01 0.01 0.01 0.00 0.00 0.01 0.01 0.01 0.01 0.01 0.01 0.00 0.00 0.00 0.00 0.00 0.00 0.00 0.00 0.00 0.00 0.00 0.00 0.00 0.00 0.00 0.00 0.00 0.00 0.00 0.00 0.00 0.00 0.00 0.00 0.00 0.00 0.00 0.00 0.00 0.00 0.00 0.00 0.00 0.00 0.00
0.01 0.02 0.02 0.03 0.02 0.01 0.00 0.00 0.00 0.00 0.00 0.00 0.00 0.01 0.00 0.00 0.00 0.00 0.00 0.00 0.00 0.00 0.00 0.00 0.00 0.00 0.00 0.00 0.00 0.00 0.00 0.00 0.00 0.00 0.00 0.00 0.00 0.00 0.00 0.00 0.00 0.00 0.00 0.00 0.00 0.00 0.00 0.00 0.00
0.01 0.01 0.02 0.02 0.02 0.01 0.00 0.00 0.00 0.00 0.00 0.00 0.00 0.00 0.00 0.00 0.00 0.00 0.00 0.00 0.00 0.00 0.00 0.00 0.00 0.00 0.00 0.00 0.00 0.00 0.00 0.00 0.00 0.00 0.00 0.00 0.00 0.00 0.00 0.00 0.00 0.00 0.00 0.00 0.00 0.00 0.00 0.00 0.00
0.01 0.01 0.01 0.01 0.01 0.00 0.00 0.00 0.00 0.00 0.00 0.00 0.00 0.00 0.00 0.00 0.00 0.00 0.00 0.00 0.00 0.00 0.00 0.00 0.00 0.00 0.00 0.00 0.00 0.00 0.00 0.00 0.00 0.00 0.00 0.00 0.00 0.00 0.00 0.00 0.00 0.00 0.00 0.00 0.00 0.00 0.00 0.00 0.00
0.01 0.01 0.00 0.01 0.01 0.01 0.00 0.00 0.00 0.00 0.00 0.00 0.00 0.00 0.00 0.00 0.00 0.00 0.00 0.00 0.00 0.00 0.00 0.00 0.00 0.00 0.00 0.00 0.00 0.00 0.00 0.00 0.00 0.00 0.00 0.00 0.00 0.00 0.00 0.00 0.00 0.00 0.00 0.00 0.00 0.00 0.00 0.00 0.00
0.00 0.00 0.00 0.00 0.00 0.00 0.00 0.00 0.00 0.00 0.00 0.00 0.00 0.00 0.00 0.00 0.00 0.00 0.00 0.00 0.00 0.00 0.00 0.00 0.00 0.00 0.00 0.00 0.00 0.00 0.00 0.00 0.00 0.00 0.00 0.00 0.00 0.00 0.00 0.00 0.00 0.00 0.00 0.00 0.00 0.00 0.00 0.00 0.00
0.00 0.00 0.00 0.00 0.00 0.00 0.00 0.00 0.00 0.00 0.00 0.00 0.00 0.00 0.00 0.00 0.00 0.00 0.00 0.00 0.00 0.00 0.00 0.00 0.00 0.00 0.00 0.00 0.00 0.00 0.00 0.00 0.00 0.00 0.00 0.00 0.00 0.00 0.00 0.00 0.00 0.00 0.00 0.00 0.00 0.00 0.00 0.00 0.00
MSLP
1010.88 1011.24 1011.84 1012.59 1013.41 1014.20 1014.89 1015.43 1015.81 1016.05 1016.17 1016.24 1016.28 1016.34 1016.41 1016.48 1016.54 1016.55 1016.48 1016.35 1016.15 1015.91 1015.67 1015.47 1015.34 1015.29 1015.31 1015.38 1015.45 1015.50 1015.51 1015.48 1015.42 1015.35 1015.30 1015.29 1015.32 1015.39 1015.46 1015.50 1015.49 1015.41 1015.27 1015.09 1014.89 1014.71 1014.56 1014.44 1014.35
1011.12 1011.59 1012.26 1013.04 1013.83 1014.56 1015.16 1015.58 1015.84 1015.96 1015.99 1015.99 1016.01 1016.07 1016.17 1016.31 1016.44 1016.52 1016.53 1016.45 1016.30 1016.10 1015.89 1015.73 1015.62 1015.60 1015.65 1015.74 1015.84 1015.91 1015.92 1015.88 1015.80 1015.69 1015.60 1015.55 1015.54 1015.56 1015.58 1015.59 1015.55 1015.46 1015.31 1015.12 1014.92 1014.72 1014.56 1014.42 1014.31
1011.53 1012.06 1012.75 1013.50 1014.23 1014.87 1015.35 1015.67 1015.83 1015.87 1015.84 1015.81 1015.82 1015.90 1016.05 1016.23 1016.42 1016.56 1016.62 1016.58 1016.47 1016.30 1016.13 1016.00 1015.93 1015.95 1016.03 1016.16 1016.28 1016.37 1016.39 1016.34 1016.23 1016.10 1015.96 1015.85 1015.78 1015.74 1015.72 1015.68 1015.61 1015.49 1015.32 1015.13 1014.92 1014.73 1014.55 1014.40 1014.26
1012.08 1012.63 1013.28 1013.95 1014.58 1015.11 1015.49 1015.72 1015.81 1015.81 1015.77 1015.75 1015.78 1015.89 1016.07 1016.29 1016.51 1016.68 1016.76 1016.76 1016.67 1016.53 1016.39 1016.28 1016.25 1016.31 1016.43 1016.58 1016.73 1016.83 1016.85 1016.80 1016.67 1016.50 1016.32 1016.16 1016.04 1015.94 1015.86 1015.77 1015.67 1015.52 1015.34 1015.14 1014.94 1014.74 1014.56 1014.40 1014.23
1012.73 1013.24 1013.81 1014.36 1014.87 1015.27 1015.56 1015.72 1015.79 1015.79 1015.79 1015.81 1015.89 1016.04 1016.25 1016.49 1016.72 1016.89 1016.97 1016.97 1016.89 1016.77 1016.65 1016.58 1016.58 1016.65 1016.79 1016.96 1017.12 1017.22 1017.25 1017.18 1017.04 1016.85 1016.64 1016.45 1016.28 1016.14 1016.01 1015.89 1015.75 1015.58 1015.39 1015.19 1014.98 1014.78 1014.59 1014.41 1014.22
1013.39 1013.83 1014.28 1014.70 1015.07 1015.36 1015.57 1015.70 1015.78 1015.83 1015.88 1015.98 1016.12 1016.32 1016.56 1016.80 1017.01 1017.16 1017.23 1017.21 1017.13 1017.01 1016.91 1016.85 1016.86 1016.95 1017.09 1017.26 1017.41 1017.50 1017.51 1017.44 1017.29 1017.09 1016.88 1016.67 1016.48 1016.31 1016.17 1016.02 1015.86 1015.67 1015.47 1015.25 1015.03 1014.82 1014.62 1014.42 1014.22
1013.99 1014.34 1014.67 1014.95 1015.19 1015.38 1015.54 1015.66 1015.77 1015.89 1016.04 1016.22 1016.43 1016.67 1016.93 1017.16 1017.35 1017.46 1017.49 1017.45 1017.35 1017.24 1017.13 1017.08 1017.10 1017.18 1017.30 1017.44 1017.57 1017.63 1017.63 1017.54 1017.39 1017.21 1017.00 1016.81 1016.63 1016.47 1016.31 1016.16 1015.98 1015.78 1015.56 1015.32 1015.09 1014.86 1014.64 1014.42 1014.19
1014.48 1014.74 1014.95 1015.11 1015.25 1015.36 1015.49 1015.63 1015.79 1015.99 1016.22 1016.48 1016.76 1017.04 1017.29 1017.51 1017.66 1017.73 1017.72 1017.65 1017.54 1017.42 1017.32 1017.26 1017.27 1017.32 1017.42 1017.52 1017.61 1017.64 1017.61 1017.52 1017.38 1017.22 1017.04 1016.88 1016.73 1016.59 1016.45 1016.29 1016.11 1015.89 1015.64 1015.38 1015.12 1014.86 1014.61 1014.37 1014.11
1014.83 1015.02 1015.15 1015.22 1015.28 1015.36 1015.46 1015.62 1015.84 1016.11 1016.42 1016.74 1017.06 1017.36 1017.60 1017.79 1017.90 1017.93 1017.89 1017.79 1017.67 1017.54 1017.44 1017.39 1017.38 1017.42 1017.47 1017.54 1017.58 1017.57 1017.53 1017.43 1017.31 1017.18 1017.04 1016.93 1016.82 1016.71 1016.59 1016.43 1016.24 1016.00 1015.72 1015.42 1015.12 1014.82 1014.54 1014.26 1013.98
1015.08 1015.24 1015.31 1015.34 1015.35 1015.40 1015.51 1015.69 1015.95 1016.26 1016.61 1016.97 1017.31 1017.60 1017.82 1017.97 1018.04 1018.03 1017.96 1017.85 1017.73 1017.61 1017.52 1017.47 1017.46 1017.47 1017.51 1017.53 1017.54 1017.51 1017.45 1017.35 1017.25 1017.15 1017.06 1016.98 1016.91 1016.83 1016.73 1016.57 1016.37 1016.10 1015.79 1015.45 1015.10 1014.76 1014.43 1014.12 1013.82
1015.29 1015.45 1015.51 1015.51 1015.51 1015.55 1015.66 1015.85 1016.12 1016.45 1016.82 1017.17 1017.49 1017.76 1017.94 1018.04 1018.07 1018.03 1017.94 1017.83 1017.72 1017.62 1017.55 1017.52 1017.52 1017.53 1017.56 1017.56 1017.55 1017.50 1017.44 1017.35 1017.26 1017.19 1017.13 1017.09 1017.04 1016.98 1016.89 1016.73 1016.50 1016.21 1015.86 1015.48 1015.09 1014.70 1014.34 1013.99 1013.67
1015.56 1015.73 1015.79 1015.79 1015.79 1015.82 1015.93 1016.11 1016.38 1016.69 1017.03 1017.35 1017.63 1017.84 1017.97 1018.03 1018.01 1017.94 1017.85 1017.74 1017.65 1017.58 1017.55 1017.55 1017.58 1017.61 1017.64 1017.66 1017.64 1017.60 1017.54 1017.46 1017.39 1017.33 1017.29 1017.26 1017.22 1017.17 1017.06 1016.90 1016.65 1016.34 1015.96 1015.55 1015.12 1014.70 1014.30 1013.93 1013.58
1015.96 1016.14 1016.20 1016.21 1016.20 1016.23 1016.31 1016.48 1016.71 1016.98 1017.27 1017.53 1017.75 1017.89 1017.96 1017.96 1017.90 1017.81 1017.71 1017.61 1017.55 1017.52 1017.53 1017.57 1017.64 1017.71 1017.78 1017.81 1017.82 1017.80 1017.74 1017.68 1017.61 1017.56 1017.51 1017.48 1017.44 1017.37 1017.25 1017.07 1016.82 1016.49 1016.10 1015.67 1015.22 1014.79 1014.37 1013.99 1013.63
1016.53 1016.70 1016.76 1016.75 1016.73 1016.73 1016.79 1016.92 1017.10 1017.32 1017.54 1017.73 1017.87 1017.94 1017.95 1017.90 1017.80 1017.69 1017.57 1017.49 1017.45 1017.45 1017.50 1017.59 1017.70 1017.82 1017.93 1018.01 1018.05 1018.05 1018.02 1017.97 1017.90 1017.84 1017.78 1017.72 1017.66 1017.57 1017.44 1017.25 1016.99 1016.67 1016.28 1015.86 1015.43 1014.99 1014.58 1014.19 1013.84
1017.27 1017.40 1017.42 1017.38 1017.32 1017.29 1017.32 1017.40 1017.54 1017.70 1017.85 1017.97 1018.04 1018.04 1017.99 1017.88 1017.75 1017.61 1017.49 1017.41 1017.37 1017.39 1017.47 1017.59 1017.74 1017.91 1018.06 1018.19 1018.27 1018.31 1018.31 1018.26 1018.20 1018.12 1018.04 1017.95 1017.86 1017.75 1017.61 1017.42 1017.18 1016.87 1016.52 1016.13 1015.72 1015.31 1014.92 1014.55 1014.20
1018.10 1018.16 1018.12 1018.02 1017.92 1017.85 1017.84 1017.89 1017.98 1018.09 1018.19 1018.25 1018.25 1018.20 1018.10 1017.96 1017.79 1017.63 1017.49 1017.40 1017.36 1017.38 1017.46 1017.60 1017.77 1017.96 1018.15 1018.32 1018.45 1018.52 1018.54 1018.52 1018.45 1018.36 1018.26 1018.15 1018.03 1017.91 1017.76 1017.59 1017.37 1017.10 1016.79 1016.45 1016.09 1015.72 1015.36 1015.01 1014.69
1018.93 1018.89 1018.76 1018.60 1018.46 1018.36 1018.32 1018.35 1018.40 1018.47 1018.53 1018.54 1018.51 1018.42 1018.28 1018.12 1017.93 1017.75 1017.60 1017.49 1017.43 1017.43 1017.49 1017.61 1017.78 1017.98 1018.19 1018.39 1018.55 1018.66 1018.72 1018.71 1018.66 1018.56 1018.45 1018.32 1018.19 1018.06 1017.92 1017.76 1017.57 1017.35 1017.10 1016.81 1016.49 1016.17 1015.85 1015.54 1015.23
1019.62 1019.48 1019.28 1019.07 1018.89 1018.77 1018.72 1018.73 1018.77 1018.81 1018.84 1018.83 1018.77 1018.66 1018.51 1018.34 1018.15 1017.97 1017.80 1017.67 1017.58 1017.54 1017.57 1017.65 1017.79 1017.98 1018.19 1018.40 1018.59 1018.74 1018.83 1018.86 1018.82 1018.74 1018.63 1018.50 1018.37 1018.23 1018.10 1017.97 1017.81 1017.64 1017.43 1017.19 1016.92 1016.64 1016.35 1016.07 1015.79
1020.07 1019.87 1019.61 1019.37 1019.19 1019.07 1019.02 1019.02 1019.04 1019.07 1019.07 1019.04 1018.97 1018.86 1018.72 1018.56 1018.40 1018.23 1018.07 1017.93 1017.81 1017.73 1017.70 1017.74 1017.83 1017.98 1018.18 1018.39 1018.61 1018.79 1018.93 1019.00 1019.00 1018.95 1018.86 1018.74 1018.61 1018.48 1018.36 1018.24 1018.11 1017.97 1017.79 1017.58 1017.35 1017.10 1016.84 1016.57 1016.31
1020.23 1019.99 1019.73 1019.50 1019.33 1019.23 1019.19 1019.18 1019.19 1019.19 1019.16 1019.11 1019.03 1018.94 1018.83 1018.72 1018.60 1018.48 1018.35 1018.22 1018.09 1017.98 1017.91 1017.88 1017.92 1018.03 1018.20 1018.42 1018.65 1018.88 1019.06 1019.19 1019.25 1019.24 1019.18 1019.08 1018.97 1018.85 1018.73 1018.61 1018.49 1018.36 1018.19 1018.00 1017.78 1017.54 1017.29 1017.05 1016.80
1020.06 1019.85 1019.64 1019.46 1019.34 1019.27 1019.23 1019.21 1019.19 1019.14 1019.07 1018.99 1018.91 1018.83 1018.77 1018.73 1018.70 1018.66 1018.60 1018.51 1018.40 1018.28 1018.17 1018.09 1018.08 1018.15 1018.30 1018.51 1018.77 1019.04 1019.29 1019.48 1019.60 1019.64 1019.62 1019.55 1019.45 1019.33 1019.21 1019.09 1018.96 1018.81 1018.65 1018.45 1018.23 1017.99 1017.75 1017.50 1017.27
1019.64 1019.51 1019.40 1019.30 1019.25 1019.21 1019.17 1019.11 1019.02 1018.90 1018.77 1018.64 1018.55 1018.51 1018.52 1018.57 1018.65 1018.73 1018.77 1018.77 1018.70 1018.60 1018.48 1018.37 1018.32 1018.36 1018.49 1018.71 1018.99 1019.31 1019.61 1019.87 1020.06 1020.16 1020.18 1020.13 1020.04 1019.92 1019.78 1019.64 1019.49 1019.33 1019.15 1018.94 1018.71 1018.47 1018.22 1017.97 1017.75
1019.06 1019.06 1019.07 1019.08 1019.09 1019.07 1019.00 1018.88 1018.70 1018.48 1018.27 1018.09 1017.98 1017.97 1018.07 1018.24 1018.46 1018.68 1018.86 1018.96 1018.98 1018.92 1018.81 1018.70 1018.63 1018.65 1018.77 1019.00 1019.31 1019.66 1020.02 1020.34 1020.59 1020.73 1020.79 1020.76 1020.67 1020.53 1020.38 1020.22 1020.05 1019.87 1019.68 1019.46 1019.23 1018.98 1018.73 1018.49 1018.27
1018.44 1018.58 1018.72 1018.84 1018.90 1018.89 1018.77 1018.56 1018.27 1017.94 1017.62 1017.39 1017.27 1017.30 1017.48 1017.79 1018.16 1018.55 1018.88 1019.11 1019.23 1019.24 1019.17 1019.07 1019.00 1019.01 1019.13 1019.36 1019.69 1020.08 1020.48 1020.84 1021.12 1021.30 1021.38 1021.36 1021.26 1021.12 1020.95 1020.77 1020.59 1020.40 1020.21 1020.01 1019.78 1019.55 1019.31 1019.08 1018.87
1017.87 1018.16 1018.42 1018.62 1018.72 1018.68 1018.50 1018.19 1017.77 1017.32 1016.92 1016.62 1016.50 1016.58 1016.86 1017.29 1017.82 1018.37 1018.86 1019.23 1019.46 1019.54 1019.52 1019.45 1019.39 1019.40 1019.52 1019.75 1020.09 1020.50 1020.92 1021.30 1021.60 1021.80 1021.87 1021.85 1021.75 1021.59 1021.41 1021.23 1021.06 1020.89 1020.72 1020.54 1020.35 1020.14 1019.93 1019.72 1019.52
1017.43 1017.83 1018.18 1018.43 1018.54 1018.46 1018.21 1017.78 1017.26 1016.70 1016.22 1015.89 1015.77 1015.90 1016.27 1016.83 1017.51 1018.20 1018.83 1019.33 1019.66 1019.82 1019.86 1019.82 1019.78 1019.80 1019.91 1020.15 1020.49 1020.89 1021.30 1021.68 1021.98 1022.16 1022.23 1022.19 1022.08 1021.92 1021.75 1021.58 1021.43 1021.30 1021.17 1021.05 1020.90 1020.74 1020.56 1020.37 1020.19
1017.12 1017.59 1017.99 1018.26 1018.35 1018.22 1017.89 1017.38 1016.76 1016.13 1015.60 1015.26 1015.16 1015.35 1015.80 1016.46 1017.26 1018.07 1018.81 1019.41 1019.83 1020.06 1020.15 1020.15 1020.14 1020.16 1020.28 1020.51 1020.83 1021.21 1021.61 1021.96 1022.23 1022.39 1022.43 1022.38 1022.26 1022.11 1021.96 1021.82 1021.71 1021.63 1021.56 1021.50 1021.41 1021.30 1021.16 1021.00 1020.83
1016.93 1017.41 1017.81 1018.06 1018.11 1017.93 1017.53 1016.95 1016.28 1015.62 1015.08 1014.74 1014.68 1014.92 1015.45 1016.19 1017.06 1017.95 1018.77 1019.44 1019.92 1020.22 1020.36 1020.41 1020.42 1020.47 1020.60 1020.82 1021.12 1021.47 1021.83 1022.14 1022.37 1022.49 1022.51 1022.45 1022.33 1022.19 1022.07 1021.97 1021.92 1021.89 1021.89 1021.88 1021.84 1021.78 1021.67 1021.53 1021.37
1016.77 1017.23 1017.58 1017.78 1017.77 1017.53 1017.08 1016.48 1015.79 1015.14 1014.62 1014.32 1014.30 1014.59 1015.16 1015.94 1016.85 1017.78 1018.64 1019.36 1019.89 1020.24 1020.44 1020.54 1020.60 1020.68 1020.83 1021.05 1021.34 1021.66 1021.97 1022.24 1022.43 1022.52 1022.52 1022.45 1022.34 1022.23 1022.14 1022.09 1022.08 1022.11 1022.15 1022.18 1022.19 1022.15 1022.06 1021.93 1021.77
1016.60 1016.97 1017.25 1017.36 1017.28 1016.99 1016.52 1015.91 1015.24 1014.62 1014.15 1013.90 1013.93 1014.25 1014.84 1015.63 1016.55 1017.48 1018.35 1019.09 1019.66 1020.07 1020.33 1020.50 1020.63 1020.77 1020.95 1021.19 1021.48 1021.78 1022.06 1022.30 1022.45 1022.52 1022.51 1022.45 1022.36 1022.28 1022.22 1022.21 1022.24 1022.30 1022.37 1022.42 1022.43 1022.39 1022.30 1022.16 1022.00
Thickness
5789 5792 5794 5789 5778 5767 5754 5757 5764 5762 5763 5769 5773 5771 5767 5762 5758 5747 5761 5770 5771 5771 5770 5767 5766 5766 5765 5764 5763 5762 5760 5759 5758 5757 5756 5755 5754 5753 5753 5752 5752 5751 5751 5750 5750 5750 5750 5750 5751
5790 5791 5788 5783 5768 5752 5748 5759 5759 5762 5767 5772 5773 5771 5766 5760 5764 5762 5764 5767 5770 5770 5768 5765 5763 5763 5762 5761 5760 5759 5757 5756 5755 5754 5753 5753 5752 5751 5750 5750 5749 5748 5748 5748 5748 5748 5748 5748 5748
5788 5788 5780 5773 5761 5753 5749 5758 5760 5765 5771 5772 5768 5769 5764 5758 5763 5764 5766 5768 5768 5767 5765 5761 5760 5759 5759 5758 5757 5756 5755 5754 5753 5752 5751 5750 5749 5749 5748 5747 5747 5746 5746 5745 5745 5745 5745 5745 5746
5783 5780 5777 5765 5752 5756 5759 5762 5765 5764 5766 5770 5769 5761 5761 5765 5766 5767 5767 5767 5766 5764 5762 5759 5757 5757 5756 5755 5754 5753 5752 5751 5751 5749 5749 5748 5747 5747 5746 5745 5745 5744 5743 5743 5743 5742 5742 5743 5743
5779 5773 5762 5751 5749 5756 5763 5767 5769 5763 5762 5766 5766 5754 5752 5762 5768 5768 5766 5765 5764 5762 5760 5757 5754 5754 5753 5753 5752 5751 5750 5749 5748 5747 5747 5746 5745 5745 5744 5743 5743 5742 5741 5741 5740 5740 5740 5740 5741
5767 5767 5752 5743 5744 5753 5761 5767 5767 5763 5761 5763 5760 5753 5748 5760 5762 5762 5763 5763 5762 5760 5758 5756 5752 5751 5751 5750 5749 5748 5748 5747 5746 5745 5744 5744 5743 5742 5742 5741 5740 5740 5739 5738 5738 5737 5737 5737 5738
5759 5756 5748 5745 5742 5746 5755 5766 5764 5761 5758 5760 5763 5751 5747 5754 5758 5760 5761 5760 5759 5757 5757 5755 5754 5751 5749 5748 5746 5746 5745 5744 5744 5743 5742 5741 5741 5740 5739 5739 5738 5737 5736 5736 5735 5734 5734 5735 5735
5760 5755 5744 5743 5740 5741 5754 5762 5764 5762 5756 5764 5765 5751 5745 5751 5757 5758 5757 5757 5756 5756 5755 5754 5752 5752 5751 5748 5744 5743 5743 5742 5741 5741 5740 5739 5739 5738 5737 5737 5735 5734 5734 5733 5732 5732 5732 5732 5733
5759 5746 5737 5739 5740 5742 5754 5755 5758 5765 5760 5759 5762 5759 5756 5756 5756 5754 5752 5752 5752 5753 5753 5752 5751 5750 5748 5747 5744 5743 5742 5740 5740 5740 5738 5739 5740 5739 5738 5734 5732 5731 5731 5730 5729 5729 5729 5730 5731
5750 5737 5736 5745 5751 5748 5751 5752 5754 5755 5751 5749 5751 5753 5755 5754 5753 5750 5749 5749 5748 5749 5751 5752 5750 5749 5748 5746 5744 5743 5743 5741 5740 5739 5739 5739 5738 5736 5735 5731 5730 5729 5729 5728 5727 5727 5729 5730 5733
5744 5736 5739 5744 5750 5751 5748 5748 5754 5750 5742 5745 5745 5746 5749 5750 5750 5749 5748 5748 5749 5749 5749 5750 5750 5748 5747 5745 5743 5742 5741 5739 5739 5738 5737 5736 5736 5735 5734 5733 5731 5730 5729 5729 5727 5729 5729 5730 5730
5736 5735 5741 5742 5746 5747 5745 5746 5745 5745 5743 5751 5752 5751 5748 5747 5747 5747 5747 5747 5748 5748 5748 5749 5749 5748 5746 5744 5742 5741 5740 5739 5738 5736 5735 5735 5734 5734 5732 5731 5729 5729 5728 5726 5726 5726 5727 5727 5728
5731 5730 5736 5739 5742 5744 5743 5741 5739 5738 5745 5750 5750 5748 5746 5746 5746 5747 5748 5747 5748 5746 5746 5747 5747 5746 5744 5742 5740 5740 5738 5738 5736 5733 5734 5733 5732 5732 5731 5730 5727 5727 5726 5725 5724 5725 5724 5724 5725
5728 5731 5733 5736 5738 5739 5735 5735 5736 5733 5742 5743 5743 5742 5743 5742 5744 5744 5745 5745 5746 5745 5745 5745 5744 5743 5743 5742 5741 5739 5737 5734 5734 5732 5732 5731 5730 5729 5728 5728 5726 5725 5723 5723 5722 5723 5721 5722 5722
5731 5726 5725 5729 5733 5733 5734 5724 5726 5733 5738 5737 5738 5738 5739 5740 5742 5742 5743 5744 5745 5745 5745 5743 5742 5742 5741 5740 5738 5737 5736 5735 5733 5731 5730 5729 5727 5727 5726 5726 5725 5723 5722 5721 5721 5721 5720 5720 5720
5724 5718 5710 5717 5725 5728 5726 5711 5723 5733 5734 5732 5735 5736 5735 5736 5739 5741 5742 5744 5744 5744 5743 5741 5741 5740 5738 5737 5736 5736 5734 5732 5731 5729 5727 5727 5726 5725 5723 5723 5722 5720 5719 5719 5718 5718 5718 5718 5717
5711 5706 5705 5710 5721 5724 5722 5712 5720 5730 5732 5731 5733 5734 5735 5735 5737 5739 5741 5742 5743 5742 5741 5740 5739 5738 5737 5735 5734 5733 5732 5729 5729 5727 5725 5724 5724 5723 5722 5720 5719 5718 5717 5717 5716 5715 5715 5714 5713
5701 5704 5704 5705 5714 5719 5715 5712 5718 5726 5729 5730 5731 5734 5734 5734 5735 5738 5739 5741 5741 5741 5741 5738 5736 5736 5735 5734 5734 5731 5730 5729 5727 5725 5723 5721 5721 5720 5720 5718 5717 5716 5715 5713 5713 5712 5711 5711 5711
5712 5709 5705 5705 5714 5715 5712 5712 5716 5723 5726 5727 5730 5733 5734 5733 5736 5737 5738 5738 5739 5739 5739 5737 5736 5735 5733 5732 5731 5729 5728 5727 5726 5723 5721 5719 5719 5718 5717 5717 5715 5712 5711 5710 5710 5710 5710 5709 5710
5710 5706 5704 5706 5713 5714 5712 5713 5719 5723 5726 5729 5732 5733 5734 5734 5734 5734 5735 5736 5737 5736 5736 5736 5735 5734 5732 5730 5730 5728 5727 5726 5724 5722 5720 5718 5717 5716 5715 5714 5713 5711 5708 5708 5707 5705 5706 5706 5706
5706 5707 5708 5707 5709 5715 5713 5710 5717 5724 5728 5729 5731 5734 5736 5735 5735 5734 5734 5734 5734 5734 5733 5733 5733 5732 5730 5729 5728 5726 5725 5725 5724 5721 5719 5717 5715 5714 5712 5711 5711 5709 5708 5706 5704 5703 5701 5701 5703
5701 5712 5713 5711 5711 5709 5714 5705 5720 5727 5726 5727 5729 5733 5734 5734 5734 5734 5733 5732 5732 5732 5733 5733 5731 5731 5729 5728 5727 5726 5723 5722 5720 5719 5718 5716 5714 5712 5710 5709 5708 5708 5706 5704 5703 5702 5700 5698 5698
5709 5716 5715 5715 5714 5712 5716 5713 5723 5727 5725 5730 5733 5734 5735 5735 5735 5732 5732 5732 5732 5731 5730 5731 5730 5728 5726 5726 5723 5722 5722 5720 5719 5718 5716 5715 5713 5710 5708 5707 5706 5705 5704 5702 5700 5699 5698 5697 5695
5714 5713 5712 5715 5716 5703 5715 5715 5718 5731 5735 5738 5738 5738 5736 5736 5734 5733 5732 5731 5730 5728 5727 5727 5726 5724 5723 5722 5722 5720 5718 5717 5716 5714 5713 5713 5712 5709 5707 5705 5704 5703 5702 5700 5698 5696 5695 5693 5691
5714 5708 5696 5695 5697 5704 5718 5714 5724 5742 5745 5745 5743 5741 5740 5737 5735 5732 5730 5728 5726 5725 5725 5724 5723 5721 5721 5720 5720 5718 5716 5715 5713 5712 5710 5709 5709 5707 5704 5703 5702 5700 5698 5697 5695 5694 5692 5691 5688
5714 5715 5702 5692 5694 5707 5712 5714 5734 5743 5744 5745 5745 5744 5740 5737 5735 5732 5730 5728 5725 5724 5723 5723 5721 5719 5718 5718 5718 5716 5714 5713 5711 5709 5708 5707 5705 5703 5701 5700 5698 5697 5695 5693 5691 5691 5689 5687 5685
5712 5714 5722 5714 5709 5705 5716 5725 5736 5739 5739 5739 5740 5739 5737 5736 5734 5732 5729 5727 5725 5723 5722 5721 5720 5718 5716 5716 5714 5713 5712 5710 5708 5706 5705 5704 5702 5700 5698 5697 5695 5693 5691 5689 5688 5686 5684 5683 5681
5724 5723 5716 5710 5698 5699 5710 5719 5730 5736 5738 5739 5738 5738 5738 5736 5734 5731 5728 5726 5725 5723 5721 5720 5718 5717 5715 5713 5712 5709 5708 5706 5704 5703 5701 5700 5698 5696 5694 5694 5692 5690 5687 5685 5683 5681 5678 5677 5676
5714 5715 5717 5717 5715 5706 5704 5722 5748 5747 5748 5745 5744 5743 5740 5737 5734 5731 5728 5726 5724 5721 5719 5717 5715 5713 5712 5710 5709 5706 5704 5702 5701 5699 5696 5695 5694 5692 5691 5689 5688 5686 5683 5681 5678 5676 5673 5672 5671
5725 5724 5720 5710 5711 5715 5713 5725 5753 5751 5751 5749 5747 5746 5743 5739 5735 5732 5728 5725 5721 5719 5717 5715 5713 5711 5708 5706 5704 5702 5700 5698 5697 5695 5693 5692 5690 5688 5687 5685 5683 5680 5678 5676 5673 5670 5668 5666 5665